Omaha Millard, NE

5:55 AM CDT on September 26, 2017 (GMT -0500)
Millard Municipal

Weather History for KMLE - February, 2014

Change the Weather History Date:

Friday, February 14, 2014

  Actual Average (KOFF) Record (KOFF)
Temperature  
Mean Temperature 24 °F -  
Max Temperature 29 °F 37 °F 66 °F (2006)
Min Temperature 18 °F 20 °F -4 °F (2007)
Degree Days  
Heating Degree Days 42    
Moisture  
Dew Point 13 °F    
Average Humidity 64    
Maximum Humidity 81    
Minimum Humidity 46    
Precipitation  
Precipitation 0.02 in - - ()
Sea Level Pressure  
Sea Level Pressure 29.93 in    
Wind  
Wind Speed 5 mph (NNW)    
Max Wind Speed 16 mph    
Max Gust Speed 25 mph    
Visibility 10 miles    
Events Snow    
Averages and records for this station are not official NWS values.
T = Trace of Precipitation, MM = Missing Value Source: NWS Daily Summary

Daily Weather History Graph

Daily Weather History Graph

Search for Another Location

Airport or City:

Trip Planner

Search our weather history database for the weather conditions in past years. The results will help you decide how hot, cold, wet, or windy it might be!

Date:

Astronomy

Feb. 14, 2014 Rise Set
Actual Time 7:20 AM CST 5:57 PM CST
Civil Twilight 6:52 AM CST 6:25 PM CST
Nautical Twilight 6:19 AM CST 6:58 PM CST
Astronomical Twilight 5:47 AM CST 7:30 PM CST
Moon 6:02 PM CST (2/14) 6:47 AM CST (2/14)
Length of Visible Light 11h 33m
Length of Day
10h 37m
Full, 100% of the Moon is Illuminated
Feb 14
Full
Feb 14
Full
Feb 22
Last Quarter
Mar 1
New
Mar 8
First Quarter

Hourly Weather History & Observations

Time (CST) Temp. Windchill Dew Point Humidity Pressure Visibility Wind Dir Wind Speed Gust Speed Precip Events Conditions
12:15 AM 28.4 °F - 15.4 °F 58% 29.73 in 10.0 mi Calm Calm - N/A   Overcast
12:35 AM 28.4 °F - 15.8 °F 59% 29.72 in 7.0 mi Calm Calm - N/A Snow Light Snow
12:55 AM 27.3 °F 23.4 °F 17.2 °F 66% 29.71 in 7.0 mi East 3.5 mph - N/A Snow Light Snow
1:15 AM 26.6 °F 21.2 °F 17.6 °F 69% 29.68 in 10.0 mi East 4.6 mph - N/A   Overcast
1:35 AM 26.2 °F 22.1 °F 17.6 °F 70% 29.67 in 10.0 mi East 3.5 mph - N/A   Overcast
1:55 AM 26.2 °F 22.1 °F 17.4 °F 69% 29.68 in 10.0 mi ENE 3.5 mph - N/A   Overcast
2:15 AM 25.7 °F - 17.6 °F 71% 29.69 in 10.0 mi Calm Calm - 0.01 in   Overcast
2:35 AM 25.7 °F - 19.2 °F 76% 29.69 in 4.0 mi Calm Calm - 0.01 in Snow Light Snow
2:55 AM 25.2 °F 15.1 °F 19.8 °F 80% 29.60 in 10.0 mi ESE 10.4 mph - 0.01 in Snow Light Snow
3:15 AM 25.7 °F 17.1 °F 20.7 °F 81% 29.69 in 10.0 mi NNW 8.1 mph - N/A   Overcast
3:35 AM 25.0 °F 18.1 °F 19.6 °F 80% 29.69 in 10.0 mi NNW 5.8 mph - 0.01 in   Overcast
3:55 AM 23.7 °F 14.0 °F 18.5 °F 80% 29.71 in 10.0 mi North 9.2 mph - 0.01 in   Overcast
4:15 AM 23.4 °F 15.2 °F 18.1 °F 80% 29.70 in 10.0 mi North 6.9 mph - N/A   Overcast
4:35 AM 23.4 °F 15.2 °F 17.4 °F 78% 29.71 in 10.0 mi North 6.9 mph - N/A   Overcast
4:55 AM 23.2 °F 13.3 °F 16.5 °F 76% 29.73 in 10.0 mi NNW 9.2 mph - N/A   Overcast
5:15 AM 23.0 °F 13.9 °F 16.9 °F 77% 29.76 in 10.0 mi NNW 8.1 mph - N/A   Overcast
5:35 AM 22.5 °F 13.2 °F 17.1 °F 80% 29.78 in 10.0 mi NNW 8.1 mph 16.1 mph N/A   Overcast
5:55 AM 21.9 °F 10.4 °F 14.7 °F 74% 29.79 in 10.0 mi NNW 11.5 mph 18.4 mph N/A   Overcast
6:15 AM 21.2 °F 11.7 °F 14.0 °F 74% 29.81 in 10.0 mi NNW 8.1 mph - N/A   Overcast
6:35 AM 20.3 °F 11.5 °F 13.3 °F 74% 29.82 in 10.0 mi North 6.9 mph 17.3 mph N/A   Overcast
6:55 AM 20.3 °F 12.5 °F 13.1 °F 74% 29.83 in 10.0 mi North 5.8 mph - N/A   Overcast
7:15 AM 19.9 °F 10.1 °F 12.6 °F 73% 29.85 in 10.0 mi NNW 8.1 mph - N/A   Overcast
7:35 AM 19.4 °F 9.5 °F 11.3 °F 71% 29.87 in 10.0 mi NNW 8.1 mph 19.6 mph N/A   Overcast
7:55 AM 19.4 °F 10.4 °F 10.8 °F 69% 29.88 in 10.0 mi NNW 6.9 mph - N/A   Overcast
8:15 AM 19.2 °F 8.4 °F 11.3 °F 71% 29.89 in 10.0 mi NNW 9.2 mph - N/A   Overcast
8:35 AM 19.2 °F 11.3 °F 11.3 °F 71% 29.90 in 10.0 mi NNW 5.8 mph - N/A   Overcast
8:55 AM 19.4 °F 8.6 °F 11.8 °F 72% 29.92 in 10.0 mi NNW 9.2 mph - N/A   Overcast
9:15 AM 18.9 °F 8.8 °F 11.3 °F 72% 29.94 in 10.0 mi North 8.1 mph 18.4 mph N/A   Overcast
9:35 AM 18.9 °F 8.8 °F 11.1 °F 72% 29.96 in 10.0 mi North 8.1 mph 18.4 mph N/A   Overcast
9:55 AM 19.0 °F 9.0 °F 11.8 °F 74% 29.96 in 10.0 mi NNW 8.1 mph - N/A   Overcast
10:15 AM 19.2 °F 7.0 °F 12.0 °F 74% 29.97 in 10.0 mi NNW 11.5 mph 16.1 mph N/A   Overcast
10:35 AM 20.7 °F 10.2 °F 12.9 °F 72% 29.98 in 10.0 mi NNW 9.2 mph 16.1 mph N/A   Mostly Cloudy
10:55 AM 21.2 °F 8.9 °F 12.9 °F 70% 30.00 in 10.0 mi NNW 12.7 mph 16.1 mph N/A   Mostly Cloudy
11:15 AM 22.3 °F 11.5 °F 13.1 °F 68% 30.01 in 10.0 mi NNW 10.4 mph 20.7 mph N/A   Mostly Cloudy
11:35 AM 22.8 °F 11.5 °F 13.6 °F 68% 30.02 in 10.0 mi NNW 11.5 mph 18.4 mph N/A   Mostly Cloudy
11:55 AM 23.4 °F 14.3 °F 13.6 °F 66% 30.02 in 10.0 mi NNW 8.1 mph 20.7 mph N/A   Overcast
12:15 PM 23.9 °F 15.0 °F 13.5 °F 64% 30.03 in 10.0 mi North 8.1 mph 16.1 mph N/A   Mostly Cloudy
12:35 PM 24.4 °F 14.9 °F 14.4 °F 66% 30.03 in 10.0 mi NNW 9.2 mph 19.6 mph N/A   Mostly Cloudy
12:55 PM 25.9 °F 14.8 °F 14.5 °F 62% 30.02 in 10.0 mi NW 12.7 mph 19.6 mph N/A   Mostly Cloudy
1:15 PM 26.2 °F 16.4 °F 14.4 °F 61% 30.02 in 10.0 mi NNW 10.4 mph 19.6 mph N/A   Mostly Cloudy
1:35 PM 27.5 °F 18.6 °F 14.5 °F 58% 30.02 in 10.0 mi North 9.2 mph 19.6 mph N/A   Scattered Clouds
1:55 PM 28.0 °F 16.1 °F 14.5 °F 57% 30.02 in 10.0 mi NNW 16.1 mph 21.9 mph N/A   Scattered Clouds
2:15 PM 28.2 °F 17.7 °F 13.6 °F 54% 30.02 in 10.0 mi NNW 12.7 mph 25.3 mph N/A   Clear
2:35 PM 28.9 °F 20.4 °F 13.6 °F 53% 30.02 in 10.0 mi NNW 9.2 mph 19.6 mph N/A   Clear
2:55 PM 29.1 °F 18.9 °F 12.2 °F 49% 30.03 in 10.0 mi NNW 12.7 mph 19.6 mph N/A   Clear
3:15 PM 28.9 °F 19.2 °F 12.6 °F 50% 30.04 in 10.0 mi NNW 11.5 mph 18.4 mph N/A   Clear
3:35 PM 29.1 °F 18.4 °F 11.5 °F 48% 30.03 in 10.0 mi NW 13.8 mph 17.3 mph N/A   Clear
3:55 PM 29.3 °F 19.1 °F 11.1 °F 47% 30.04 in 10.0 mi NNW 12.7 mph 17.3 mph N/A   Clear
4:15 PM 29.1 °F 20.6 °F 10.6 °F 46% 30.05 in 10.0 mi NW 9.2 mph 16.1 mph N/A   Clear
4:35 PM 29.3 °F 21.5 °F 10.8 °F 46% 30.04 in 10.0 mi NNW 8.1 mph - N/A   Clear
4:55 PM 28.8 °F 20.2 °F 10.2 °F 46% 30.06 in 10.0 mi NNW 9.2 mph - N/A   Clear
5:15 PM 28.2 °F 18.3 °F 9.7 °F 46% 30.07 in 10.0 mi NW 11.5 mph 16.1 mph N/A   Clear
5:35 PM 27.9 °F 20.6 °F 9.5 °F 46% 30.08 in 10.0 mi NNW 6.9 mph - N/A   Clear
5:55 PM 27.1 °F 19.7 °F 9.5 °F 48% 30.08 in 10.0 mi NNW 6.9 mph - N/A   Clear
6:15 PM 26.4 °F 22.4 °F 9.3 °F 49% 30.07 in 10.0 mi North 3.5 mph - N/A   Clear
6:35 PM 25.7 °F - 9.3 °F 50% 30.07 in 10.0 mi Calm Calm - N/A   Clear
6:55 PM 25.5 °F - 9.3 °F 50% 30.07 in 10.0 mi Calm Calm - N/A   Clear
7:15 PM 25.0 °F 20.7 °F 9.0 °F 51% 30.06 in 10.0 mi North 3.5 mph - N/A   Clear
7:35 PM 24.3 °F - 8.6 °F 51% 30.06 in 10.0 mi Calm Calm - N/A   Clear
7:55 PM 23.7 °F - 8.8 °F 53% 30.06 in 10.0 mi Calm Calm - N/A   Clear
8:15 PM 22.3 °F - 8.8 °F 56% 30.08 in 10.0 mi Calm Calm - N/A   Clear
8:35 PM 21.7 °F - 8.6 °F 57% 30.09 in 10.0 mi Calm Calm - N/A   Clear
8:55 PM 21.4 °F - 9.5 °F 60% 30.09 in 10.0 mi Calm Calm - N/A   Clear
9:15 PM 19.8 °F - 10.8 °F 68% 30.09 in 10.0 mi Calm Calm - N/A   Clear
9:35 PM 19.8 °F - 9.9 °F 65% 30.08 in 10.0 mi Calm Calm - N/A   Clear
9:55 PM 19.4 °F - 10.9 °F 70% 30.07 in 10.0 mi Calm Calm - N/A   Clear
10:15 PM 19.9 °F - 10.8 °F 68% 30.06 in 10.0 mi Calm Calm - N/A   Clear
10:35 PM 21.2 °F - 10.0 °F 62% 30.07 in 10.0 mi Calm Calm - N/A   Clear
10:55 PM 21.0 °F - 10.4 °F 64% 30.06 in 10.0 mi Calm Calm - N/A   Clear
11:15 PM 20.7 °F 15.8 °F 10.8 °F 66% 30.06 in 10.0 mi SE 3.5 mph - N/A   Clear
11:35 PM 19.9 °F 14.9 °F 10.9 °F 68% 30.06 in 10.0 mi SSE 3.5 mph - N/A   Clear
11:55 PM 19.6 °F 14.5 °F 10.9 °F 69% 30.04 in 10.0 mi SSE 3.5 mph - N/A   Clear